Change the Weather History Date:

Friday, January 18, 2013

  Actual Average Record
Temperature  
Mean Temperature 70 °F -  
Max Temperature 84 °F 72 °F 84 °F (2013)
Min Temperature 56 °F 46 °F 41 °F (2000)
Cooling Degree Days 5    
Growing Degree Days 20 (Base 50)    
Moisture  
Dew Point 44 °F    
Average Humidity 41    
Maximum Humidity 59    
Minimum Humidity 18    
Precipitation  
Precipitation 0.00 in 0.00 in - ()
Sea Level Pressure  
Sea Level Pressure 29.93 in    
Wind  
Wind Speed 2 mph ()    
Max Wind Speed 9 mph    
Max Gust Speed -    
Visibility 5.4 miles    
Events      
Averages and records for this station are not official NWS values.
T = Trace of Precipitation, MM = Missing Value Source: Averaged Metar Reports

Daily Weather History Graph

Daily Weather History Graph

Search for Another Location

Airport or City:

Trip Planner

Search our weather history database for the weather conditions in past years. The results will help you decide how hot, cold, wet, or windy it might be!

Date:

Astronomy

Jan. 18, 2013 Rise Set
Actual Time 6:36 AM EET 5:22 PM EET
Civil Twilight 6:12 AM EET 5:47 PM EET
Nautical Twilight 5:44 AM EET 6:15 PM EET
Astronomical Twilight 5:16 AM EET 6:42 PM EET
Moon 10:51 AM EET (1/18) No Moon Set
Length of Visible Light 11h 34m
Length of Day
10h 45m
Waxing Crescent, 44% of the Moon is Illuminated
Jan 18
Waxing Crescent
Jan 19
First Quarter
Jan 27
Full
Feb 3
Last Quarter
Feb 10
New

Hourly Weather History & Observations

Time (EET) Temp. Dew Point Humidity Pressure Visibility Wind Dir Wind Speed Gust Speed Precip Events Conditions
12:00 AM 64.4 °F 46.4 °F 52% 29.95 in - Calm Calm - N/A   Clear
1:00 AM 62.6 °F 46.4 °F 55% 29.95 in - Calm Calm - N/A   Clear
2:00 AM 62 °F 42 °F 36% 29.97 in 6 mi SSE 2.3 mph - -  
2:00 AM 62.6 °F 41.0 °F 45% 29.95 in - SSE 2.3 mph - N/A   Clear
3:00 AM 60.8 °F 39.2 °F 45% 29.95 in - SSE 2.3 mph - N/A   Clear
4:00 AM 60.8 °F 35.6 °F 39% 29.95 in - ESE 2.3 mph - N/A   Clear
5:00 AM 60.8 °F 37.4 °F 42% 29.89 in - ESE 9.2 mph - N/A   Clear
6:00 AM 59.0 °F 41.0 °F 51% 29.92 in - North 2.3 mph - N/A   Clear
7:00 AM 59.0 °F 39.2 °F 48% 29.92 in - ENE 3.5 mph - N/A   Clear
8:00 AM 60 °F 44 °F 44% 29.96 in 6 mi West 3.5 mph - -  
8:00 AM 59.0 °F 44.6 °F 59% 29.95 in - West 3.5 mph - N/A   Clear
9:00 AM 66.2 °F 46.4 °F 49% 29.98 in 3.7 mi SW 6.9 mph - N/A   Unknown
10:00 AM 71.6 °F 48.2 °F 43% 29.98 in 5.0 mi SW 6.9 mph - N/A   Unknown
11:00 AM 77.0 °F 44.6 °F 32% 29.95 in 5.0 mi WSW 4.6 mph - N/A   Unknown
12:00 PM 78.8 °F 44.6 °F 30% 29.92 in - West 4.6 mph - N/A   Clear
1:00 PM 82.4 °F 46.4 °F 28% 29.89 in - West 4.6 mph - N/A   Clear
2:00 PM 82 °F 46 °F 18% 29.88 in 6 mi WNW 2.3 mph - -  
2:00 PM 82.4 °F 46.4 °F 28% 29.89 in - WNW 2.3 mph - N/A   Clear
3:00 PM 84.2 °F 48.2 °F 29% 29.86 in - WSW 4.6 mph - N/A   Clear
4:00 PM 82.4 °F 48.2 °F 30% 29.89 in - WSW 3.5 mph - N/A   Clear
5:00 PM 82.4 °F 46.4 °F 28% 29.89 in - Calm Calm - N/A   Clear
6:00 PM 75.2 °F 48.2 °F 38% 29.89 in - NE 1.2 mph - N/A   Clear
7:00 PM 69.8 °F 48.2 °F 46% 29.92 in - Calm Calm - N/A   Clear
8:00 PM 66 °F 49 °F 43% 29.95 in 6 mi WSW 2.3 mph - -  
8:00 PM 66.2 °F 48.2 °F 52% 29.95 in - WSW 2.3 mph - N/A   Clear
9:00 PM 64.4 °F 41.0 °F 42% 29.95 in - South 3.5 mph - N/A   Clear
10:00 PM 62.6 °F 37.4 °F 39% 29.98 in - SSE 2.3 mph - N/A   Clear
11:00 PM 60.8 °F 41.0 °F 48% 29.98 in - SW 4.6 mph - N/A   Clear